Lid_Strength_Index
0 3 4 6 10 14 15 14 13 12 11 10 8 9 8 8 10 12 3 1 0 0 0 -1 -1 -1 -2 -1 -1 -1 -2 -2 -2 -2 -2 -2 -2 -2 -2 -2 -2 -2 -2 -2 -2 -2 -2 -2 -1
3 4 6 9 12 16 16 15 12 11 9 7 8 8 9 10 6 4 3 1 -0 0 0 -0 -1 -1 -1 -1 -1 -2 -2 -2 -2 -2 -2 -2 -2 -2 -2 -2 -2 -2 -2 -2 -2 -2 -2 -1 -1
6 4 7 11 15 15 16 14 11 10 7 10 8 7 7 8 6 3 2 1 -0 0 0 0 -1 -1 -2 -1 -1 -2 -2 -2 -2 -2 -2 -2 -2 -2 -1 -1 -1 -1 -2 -2 -1 -1 -1 -1 -1
7 6 8 12 14 13 14 12 11 11 11 8 7 9 7 3 4 2 1 1 0 0 0 -0 -1 -1 -1 -1 -2 -2 -2 -2 -2 -2 -2 -2 -2 -2 -2 -1 -1 -1 -2 -1 -1 -1 -1 -1 -1
7 8 12 13 13 12 13 10 10 11 12 10 9 10 10 5 2 1 1 1 1 0 1 0 -1 -1 -1 -1 -2 -2 -2 -2 -2 -2 -2 -2 -2 -2 -2 -2 -1 -1 -1 -1 -1 -1 -1 -1 -1
9 9 13 15 13 12 11 9 10 11 11 9 8 9 9 4 2 2 1 2 1 0 1 0 1 0 -1 -1 -1 -1 -2 -2 -2 -2 -2 -2 -2 -2 -1 -1 -1 -1 -1 -1 -1 -1 -1 -1 -1
10 11 13 14 14 13 11 9 11 11 10 9 6 10 9 4 3 2 2 2 1 0 1 0 -0 1 1 0 -0 -1 -1 -2 -2 -2 -2 -2 -2 -2 -2 -2 -2 -1 -1 -1 -1 -1 -1 -1 -1
8 10 13 13 13 14 11 10 10 10 10 7 6 9 10 4 2 3 2 3 2 0 1 0 0 0 1 1 1 0 -0 -1 -1 -1 -1 -0 -1 -1 -1 -1 -2 -2 -2 -2 -2 -2 -1 -1 -1
9 12 13 13 13 12 12 10 9 8 8 7 6 6 5 3 3 3 4 3 3 1 0 1 1 1 1 1 1 2 1 1 0 0 1 1 1 0 0 0 -1 -2 -2 -2 -2 -2 -1 -1 -0
12 13 12 10 10 11 11 10 8 8 8 8 8 5 4 3 4 4 4 3 3 2 2 1 0 1 1 -0 1 1 1 1 1 1 1 1 1 1 0 1 0 -1 -1 -1 -2 -2 -1 1 2
12 14 11 10 9 9 10 11 9 8 10 7 7 6 5 4 4 4 4 3 3 2 2 1 0 0 0 0 1 1 1 2 1 1 1 1 1 2 2 2 2 2 2 2 1 2 2 3 3
13 12 11 9 9 9 10 9 10 9 8 6 6 4 4 5 4 4 4 4 3 3 2 2 2 1 0 0 0 1 1 2 2 2 2 3 3 3 3 3 2 2 2 3 3 3 3 3 3
13 12 11 10 9 10 9 11 10 10 9 6 4 5 5 5 4 3 3 3 3 3 2 2 2 2 1 1 1 1 1 1 1 1 2 2 3 3 2 3 3 3 4 4 4 4 4 4 3
12 11 12 11 11 10 10 10 10 9 7 6 5 5 5 5 4 4 4 3 3 2 2 2 2 2 2 2 3 2 2 1 2 2 2 2 2 3 3 3 4 4 4 4 3 3 3 3 3
10 12 12 12 12 12 11 13 11 10 7 7 7 6 5 5 4 4 4 4 3 2 2 2 2 2 2 2 2 2 2 2 2 2 3 3 3 3 3 3 3 3 3 3 3 3 3 3 3
10 12 15 12 11 11 13 15 14 12 10 8 7 7 6 5 4 4 3 3 3 3 3 2 2 2 2 2 2 2 2 2 2 2 2 2 2 2 3 3 3 3 3 3 4 4 4 4 4
12 15 14 13 10 11 13 15 13 11 12 11 9 7 7 6 5 5 4 4 3 3 2 2 2 2 2 2 2 2 2 2 2 2 2 2 2 2 2 3 3 3 3 3 3 3 3 3 2
15 14 14 14 12 11 13 13 13 11 11 11 11 11 11 10 9 8 7 4 4 3 3 2 2 2 2 2 2 3 2 2 2 2 2 2 2 2 2 3 3 3 3 3 2 2 2 2 2
12 14 15 14 11 12 12 12 11 11 11 11 11 10 11 10 10 9 9 10 8 5 4 4 3 3 2 3 4 4 3 2 2 2 2 2 2 2 3 3 3 3 3 2 1 1 2 2 2
12 14 16 13 11 12 14 13 12 11 11 11 10 10 10 10 9 9 10 10 9 10 10 9 5 4 3 2 3 3 3 3 3 3 3 2 2 2 2 2 2 3 3 3 2 2 2 3 2
14 15 15 14 13 14 16 16 15 14 13 12 11 11 12 11 11 9 9 10 10 10 9 8 8 8 6 2 3 4 4 4 4 4 3 3 3 2 2 2 3 3 3 3 3 2 2 3 3
14 12 12 13 15 18 16 21 17 17 15 14 13 13 13 12 12 11 11 11 10 9 9 8 8 8 7 7 3 4 3 4 4 4 4 3 2 2 2 2 3 3 2 2 1 2 2 2 3
14 11 12 14 17 18 19 20 18 17 16 15 16 14 13 14 12 12 11 10 11 10 10 9 8 8 8 7 7 5 4 4 4 4 4 3 3 3 2 2 3 3 2 2 2 1 2 2 2
12 13 13 14 17 22 19 19 20 18 16 16 14 13 13 12 12 11 10 10 10 10 10 10 10 10 9 9 8 8 7 7 5 4 4 3 4 6 5 3 3 3 3 3 3 2 1 2 1
12 15 19 20 20 21 20 20 19 16 17 16 15 14 14 13 12 11 10 10 10 11 11 11 11 11 11 10 10 10 8 7 6 5 5 5 6 7 7 7 7 8 7 6 6 5 6 6 5
14 14 18 22 25 23 19 21 19 16 14 13 13 12 13 13 12 12 11 11 11 11 12 12 12 12 11 11 11 10 10 9 8 8 7 6 7 8 8 9 8 8 8 8 7 7 7 7 7
13 16 14 18 22 22 21 19 16 16 15 15 14 13 13 13 12 11 11 11 11 12 12 12 12 12 12 12 12 11 11 10 10 9 9 9 9 8 9 9 9 9 9 8 8 9 9 9 8
12 11 16 17 24 25 23 21 20 17 15 15 14 13 12 12 12 11 11 11 12 12 12 12 12 12 12 12 12 12 12 11 11 10 10 10 10 10 10 10 9 9 9 8 8 9 9 9 9
13 13 13 14 17 21 24 21 17 16 15 14 13 12 12 11 11 10 11 11 11 12 12 12 12 12 12 12 12 12 12 12 12 11 11 11 10 10 9 9 9 9 9 10 10 10 10 10 10
11 13 13 17 19 18 18 20 15 15 14 13 12 12 11 11 10 10 10 10 11 11 11 12 12 12 11 11 11 11 11 11 11 11 11 10 10 10 9 9 9 10 11 11 11 11 12 12 12